Retour au catalogue

CZ-6A DEB

ActifPO
NORAD 60757·DEBRIS·🇨🇳 China

Lancé Aug 6, 2024 depuis Taiyuan Satellite Launch Center

Loading…

Prochains Passages (prochaines 24 heures)

TLE

FraisSource: Space-Track

Époque: Sep 14, 2026, 00:33 UTC

1 60757U 24140EG  26257.02350486  .00000164  00000-0  75311-4 0  9998
2 60757  89.0913 273.8675 0059783 283.0822  76.3698 14.15871947108546

Suivez CZ-6A DEB en temps réel avec AllMySat

Download on the App Store